Tracking 27122 objects as of 24-Mar-2023
HD Live streaming from Space Station
objects crossing your sky now

DMSP 5D-2 F15 (USA 147)

Track DMSP 5D-2 F15 (USA 147) now!
10-day predictions
DMSP 5D-2 F15 (USA 147) is classified as:


NORAD ID: 25991
Int'l Code: 1999-067A
Perigee: 835.7 km
Apogee: 851.7 km
Inclination: 99.1 °
Period: 101.6 minutes
Semi major axis: 7214 km
RCS: Unknown
Launch date: December 12, 1999
Source: United States (US)
Launch site: AIR FORCE WESTERN TEST RANGE (AFWTR)

Near-polar orbits; investigate Earth's environment.
Your satellite tracking list
Your tracking list is empty




NASA's NSSDC Master Catalog

Two Line Element Set (TLE):
1 25991U 99067A   23082.95986479  .00000416  00000-0  23101-3 0  9990
2 25991  99.0712  84.5867 0011067 114.3848 298.9904 14.16690039203340
Source of the keplerian elements: McCants